Time,TemperatureF,DewpointF,PressureIn,WindDirection,WindDirectionDegrees,WindSpeedMPH,WindSpeedGustMPH,Humidity,HourlyPrecipIn,Conditions,Clouds,dailyrainin,SoftwareType,DateUTC
2013-08-16 00:00:00,63.5,55.1,30.05,North,359,0.0,0.0,74,0.00,,---,0.00,VWS V14.01,2013-08-16 05:00:00,
2013-08-16 00:12:00,63.2,55.2,30.05,North,359,0.0,0.0,75,0.00,,---,0.00,VWS V14.01,2013-08-16 05:12:00,
2013-08-16 00:22:00,62.9,54.9,30.04,North,359,0.0,0.0,75,0.00,,---,0.00,VWS V14.01,2013-08-16 05:22:00,
2013-08-16 00:30:00,62.7,55.0,30.04,North,359,0.0,0.0,76,0.00,,---,0.00,VWS V14.01,2013-08-16 05:30:00,
2013-08-16 00:42:00,62.4,54.4,30.04,North,359,0.0,0.0,75,0.00,,---,0.00,VWS V14.01,2013-08-16 05:42:00,
2013-08-16 00:52:00,62.3,53.9,30.04,North,359,0.0,0.0,74,0.00,,---,0.00,VWS V14.01,2013-08-16 05:52:00,
2013-08-16 01:00:00,62.1,54.1,30.03,North,359,0.0,0.0,75,0.00,,---,0.00,VWS V14.01,2013-08-16 06:00:00,
2013-08-16 01:12:00,62.1,54.1,30.03,North,359,0.0,0.0,75,0.00,,---,0.00,VWS V14.01,2013-08-16 06:12:00,
2013-08-16 01:22:00,62.0,54.0,30.03,North,359,0.0,0.0,75,0.00,,---,0.00,VWS V14.01,2013-08-16 06:22:00,
2013-08-16 01:30:00,61.8,54.5,30.03,North,359,0.0,0.0,77,0.00,,---,0.00,VWS V14.01,2013-08-16 06:30:00,
2013-08-16 01:42:00,61.8,54.2,30.03,North,359,0.0,0.0,76,0.00,,---,0.00,VWS V14.01,2013-08-16 06:42:00,
2013-08-16 01:52:00,61.6,54.0,30.03,North,359,0.0,0.0,76,0.00,,---,0.00,VWS V14.01,2013-08-16 06:52:00,
2013-08-16 02:00:00,61.5,54.2,30.03,North,357,0.0,0.0,77,0.00,,---,0.00,VWS V14.01,2013-08-16 07:00:00,
2013-08-16 02:12:00,61.5,53.9,30.03,North,359,0.0,0.0,76,0.00,,---,0.00,VWS V14.01,2013-08-16 07:12:00,
2013-08-16 02:22:00,61.5,54.2,30.02,North,359,0.0,0.0,77,0.00,,---,0.00,VWS V14.01,2013-08-16 07:22:00,
2013-08-16 02:30:00,61.3,54.4,30.03,North,359,0.0,0.0,78,0.00,,---,0.00,VWS V14.01,2013-08-16 07:30:00,
2013-08-16 02:42:00,61.0,53.8,30.03,North,357,0.0,0.0,77,0.00,,---,0.00,VWS V14.01,2013-08-16 07:42:00,
2013-08-16 02:52:00,60.9,53.7,30.02,North,359,0.0,0.0,77,0.00,,---,0.00,VWS V14.01,2013-08-16 07:52:00,
2013-08-16 03:00:00,60.9,54.7,30.03,North,357,0.0,0.0,80,0.00,,---,0.00,VWS V14.01,2013-08-16 08:00:00,
2013-08-16 03:12:00,60.7,54.8,30.03,North,359,0.0,0.0,81,0.00,,---,0.00,VWS V14.01,2013-08-16 08:12:00,
2013-08-16 03:23:00,60.4,54.5,30.03,North,357,0.0,0.0,81,0.00,,---,0.00,VWS V14.01,2013-08-16 08:23:00,
2013-08-16 03:30:00,60.2,53.7,30.03,North,359,0.0,0.0,79,0.00,,---,0.00,VWS V14.01,2013-08-16 08:30:00,
2013-08-16 03:43:00,60.1,53.9,30.03,North,359,0.0,0.0,80,0.00,,---,0.00,VWS V14.01,2013-08-16 08:43:00,
2013-08-16 03:53:00,59.9,54.1,30.03,North,359,0.0,0.0,81,0.00,,---,0.00,VWS V14.01,2013-08-16 08:53:00,
2013-08-16 04:00:00,59.8,54.0,30.03,North,357,0.0,0.0,81,0.00,,---,0.00,VWS V14.01,2013-08-16 09:00:00,
2013-08-16 04:13:00,59.6,53.8,30.03,North,359,0.0,0.0,81,0.00,,---,0.00,VWS V14.01,2013-08-16 09:13:00,
2013-08-16 04:23:00,59.8,53.6,30.03,North,359,0.0,0.0,80,0.00,,---,0.00,VWS V14.01,2013-08-16 09:23:00,
2013-08-16 04:30:00,60.1,53.6,30.03,North,359,0.0,0.0,79,0.00,,---,0.00,VWS V14.01,2013-08-16 09:30:00,
2013-08-16 04:43:00,60.5,54.0,30.03,North,357,0.0,0.0,79,0.00,,---,0.00,VWS V14.01,2013-08-16 09:43:00,
2013-08-16 04:53:00,60.5,54.3,30.03,North,359,0.0,0.0,80,0.00,,---,0.00,VWS V14.01,2013-08-16 09:53:00,
2013-08-16 05:00:00,60.5,54.3,30.03,North,357,0.0,0.0,80,0.00,,---,0.00,VWS V14.01,2013-08-16 10:00:00,
2013-08-16 05:13:00,60.4,54.5,30.03,North,359,0.0,0.0,81,0.00,,---,0.00,VWS V14.01,2013-08-16 10:13:00,
2013-08-16 05:23:00,60.5,54.7,30.04,North,359,0.0,0.0,81,0.00,,---,0.00,VWS V14.01,2013-08-16 10:23:00,
2013-08-16 05:30:00,60.9,54.7,30.04,North,359,0.0,0.0,80,0.00,,---,0.00,VWS V14.01,2013-08-16 10:30:00,
2013-08-16 05:43:00,60.9,54.3,30.04,North,359,0.0,0.0,79,0.00,,---,0.00,VWS V14.01,2013-08-16 10:43:00,
2013-08-16 05:53:00,61.2,54.3,30.04,North,359,0.0,0.0,78,0.00,,---,0.00,VWS V14.01,2013-08-16 10:53:00,
2013-08-16 06:00:00,61.3,54.0,30.05,North,357,0.0,0.0,77,0.00,,---,0.00,VWS V14.01,2013-08-16 11:00:00,
2013-08-16 06:13:00,61.5,54.2,30.05,North,359,0.0,0.0,77,0.00,,---,0.00,VWS V14.01,2013-08-16 11:13:00,
2013-08-16 06:23:00,61.5,54.9,30.05,North,359,0.0,0.0,79,0.00,,---,0.00,VWS V14.01,2013-08-16 11:23:00,
2013-08-16 06:30:00,61.3,54.7,30.05,North,357,0.0,0.0,79,0.00,,---,0.00,VWS V14.01,2013-08-16 11:30:00,
2013-08-16 06:43:00,61.6,54.7,30.05,North,353,2.0,2.0,78,0.00,,---,0.00,VWS V14.01,2013-08-16 11:43:00,
2013-08-16 06:53:00,62.1,54.8,30.05,North,359,0.0,2.0,77,0.00,,---,0.00,VWS V14.01,2013-08-16 11:53:00,
2013-08-16 07:00:00,62.3,55.0,30.05,North,357,0.0,2.0,77,0.00,,---,0.00,VWS V14.01,2013-08-16 12:00:00,
2013-08-16 07:13:00,62.4,55.8,30.05,North,359,0.0,0.0,79,0.00,,---,0.00,VWS V14.01,2013-08-16 12:13:00,
2013-08-16 07:23:00,62.3,56.1,30.06,North,359,0.0,3.0,80,0.00,,---,0.00,VWS V14.01,2013-08-16 12:23:00,
2013-08-16 07:30:00,62.4,56.2,30.06,North,359,2.0,3.0,80,0.00,,---,0.00,VWS V14.01,2013-08-16 12:30:00,
2013-08-16 07:43:00,62.6,55.7,30.06,WNW,301,2.0,2.0,78,0.00,,---,0.00,VWS V14.01,2013-08-16 12:43:00,
2013-08-16 07:53:00,63.5,56.5,30.06,North,357,2.0,5.0,78,0.00,,---,0.00,VWS V14.01,2013-08-16 12:53:00,
2013-08-16 08:00:00,64.7,56.6,30.06,North,357,1.0,5.0,75,0.00,,---,0.00,VWS V14.01,2013-08-16 13:00:00,
2013-08-16 08:13:00,66.3,58.2,30.06,SSW,198,3.0,5.0,75,0.00,,---,0.00,VWS V14.01,2013-08-16 13:13:00,
2013-08-16 08:23:00,67.4,59.2,30.07,North,359,6.0,8.0,75,0.00,,---,0.00,VWS V14.01,2013-08-16 13:23:00,
2013-08-16 08:30:00,68.4,55.8,30.08,North,349,5.0,8.0,64,0.00,,---,0.00,VWS V14.01,2013-08-16 13:30:00,
2013-08-16 08:43:00,69.6,56.5,30.08,North,357,5.0,6.0,63,0.00,,---,0.00,VWS V14.01,2013-08-16 13:43:00,
2013-08-16 08:53:00,70.3,56.2,30.08,North,356,3.0,7.0,61,0.00,,---,0.00,VWS V14.01,2013-08-16 13:53:00,
2013-08-16 09:00:00,70.8,56.7,30.07,North,359,2.0,7.0,61,0.00,,---,0.00,VWS V14.01,2013-08-16 14:00:00,
2013-08-16 09:13:00,70.8,56.7,30.07,North,359,3.0,8.0,61,0.00,,---,0.00,VWS V14.01,2013-08-16 14:13:00,
2013-08-16 09:23:00,71.8,57.6,30.08,North,359,2.0,8.0,61,0.00,,---,0.00,VWS V14.01,2013-08-16 14:23:00,
2013-08-16 09:30:00,71.8,57.6,30.07,North,357,6.0,10.0,61,0.00,,---,0.00,VWS V14.01,2013-08-16 14:30:00,
2013-08-16 09:43:00,72.1,57.9,30.07,North,356,5.0,8.0,61,0.00,,---,0.00,VWS V14.01,2013-08-16 14:43:00,
2013-08-16 09:53:00,73.0,57.4,30.07,North,357,7.0,8.0,58,0.00,,---,0.00,VWS V14.01,2013-08-16 14:53:00,
2013-08-16 10:00:00,73.3,57.7,30.07,North,359,3.0,8.0,58,0.00,,---,0.00,VWS V14.01,2013-08-16 15:00:00,
2013-08-16 10:13:00,73.5,57.8,30.07,North,354,3.0,8.0,58,0.00,,---,0.00,VWS V14.01,2013-08-16 15:13:00,
2013-08-16 10:23:00,73.9,58.2,30.07,West,268,6.0,11.0,58,0.00,,---,0.00,VWS V14.01,2013-08-16 15:23:00,
2013-08-16 10:30:00,74.0,58.3,30.07,North,359,6.0,11.0,58,0.00,,---,0.00,VWS V14.01,2013-08-16 15:30:00,
2013-08-16 10:43:00,74.6,56.4,30.07,NNW,336,6.0,14.0,53,0.00,,---,0.00,VWS V14.01,2013-08-16 15:43:00,
2013-08-16 10:53:00,75.4,56.0,30.07,North,357,2.0,14.0,51,0.00,,---,0.00,VWS V14.01,2013-08-16 15:53:00,
2013-08-16 11:00:00,75.4,56.0,30.07,North,357,6.0,14.0,51,0.00,,---,0.00,VWS V14.01,2013-08-16 16:00:00,
2013-08-16 11:13:00,75.6,56.8,30.07,North,357,8.0,10.0,52,0.00,,---,0.00,VWS V14.01,2013-08-16 16:13:00,
2013-08-16 11:23:00,76.0,55.5,30.08,North,357,1.0,11.0,49,0.00,,---,0.00,VWS V14.01,2013-08-16 16:23:00,
2013-08-16 11:30:00,75.4,56.6,30.08,NW,309,2.0,11.0,52,0.00,,---,0.00,VWS V14.01,2013-08-16 16:30:00,
2013-08-16 11:43:00,76.5,55.9,30.08,North,357,6.0,14.0,49,0.00,,---,0.00,VWS V14.01,2013-08-16 16:43:00,
2013-08-16 11:53:00,75.3,54.3,30.08,WNW,296,6.0,14.0,48,0.00,,---,0.00,VWS V14.01,2013-08-16 16:53:00,
2013-08-16 12:00:00,75.4,54.9,30.08,North,357,4.0,14.0,49,0.00,,---,0.00,VWS V14.01,2013-08-16 17:00:00,
2013-08-16 12:13:00,76.0,53.8,30.08,NNW,330,2.0,11.0,46,0.00,,---,0.00,VWS V14.01,2013-08-16 17:13:00,
2013-08-16 12:24:00,76.7,53.8,30.07,North,359,2.0,11.0,45,0.00,,---,0.00,VWS V14.01,2013-08-16 17:24:00,
2013-08-16 12:30:00,77.4,53.8,30.07,North,359,1.0,11.0,44,0.00,,---,0.00,VWS V14.01,2013-08-16 17:30:00,
2013-08-16 12:44:00,78.1,53.8,30.07,NW,322,7.0,13.0,43,0.00,,---,0.00,VWS V14.01,2013-08-16 17:44:00,
2013-08-16 12:54:00,77.7,53.5,30.06,North,359,7.0,13.0,43,0.00,,---,0.00,VWS V14.01,2013-08-16 17:54:00,
2013-08-16 13:00:00,77.9,54.9,30.06,North,357,6.0,13.0,45,0.00,,---,0.00,VWS V14.01,2013-08-16 18:00:00,
2013-08-16 13:14:00,77.9,52.3,30.06,NNW,346,6.0,11.0,41,0.00,,---,0.00,VWS V14.01,2013-08-16 18:14:00,
2013-08-16 13:24:00,78.8,53.1,30.06,North,359,9.0,11.0,41,0.00,,---,0.00,VWS V14.01,2013-08-16 18:24:00,
2013-08-16 13:30:00,80.1,54.3,30.06,SSW,209,2.0,11.0,41,0.00,,---,0.00,VWS V14.01,2013-08-16 18:30:00,
2013-08-16 13:44:00,80.3,53.8,30.06,North,357,3.0,12.0,40,0.00,,---,0.00,VWS V14.01,2013-08-16 18:44:00,
2013-08-16 13:54:00,79.8,53.4,30.06,North,359,6.0,12.0,40,0.00,,---,0.00,VWS V14.01,2013-08-16 18:54:00,
2013-08-16 14:00:00,79.2,53.5,30.06,North,357,7.0,12.0,41,0.00,,---,0.00,VWS V14.01,2013-08-16 19:00:00,
2013-08-16 14:14:00,80.3,53.1,30.06,NNW,332,5.0,13.0,39,0.00,,---,0.00,VWS V14.01,2013-08-16 19:14:00,
2013-08-16 14:24:00,79.8,53.4,30.05,North,359,5.0,13.0,40,0.00,,---,0.00,VWS V14.01,2013-08-16 19:24:00,
2013-08-16 14:30:00,80.5,54.0,30.04,North,356,3.0,13.0,40,0.00,,---,0.00,VWS V14.01,2013-08-16 19:30:00,
2013-08-16 14:44:00,80.9,51.5,30.04,North,359,8.0,11.0,36,0.00,,---,0.00,VWS V14.01,2013-08-16 19:44:00,
2013-08-16 14:54:00,80.1,53.6,30.04,North,354,6.0,11.0,40,0.00,,---,0.00,VWS V14.01,2013-08-16 19:54:00,
2013-08-16 15:00:00,80.5,54.0,30.04,NNW,342,7.0,11.0,40,0.00,,---,0.00,VWS V14.01,2013-08-16 20:00:00,
2013-08-16 15:14:00,81.2,51.7,30.04,North,356,6.0,13.0,36,0.00,,---,0.00,VWS V14.01,2013-08-16 20:14:00,
2013-08-16 15:24:00,80.5,51.9,30.04,NNW,347,4.0,13.0,37,0.00,,---,0.00,VWS V14.01,2013-08-16 20:24:00,
2013-08-16 15:30:00,79.8,53.4,30.04,NNW,346,8.0,13.0,40,0.00,,---,0.00,VWS V14.01,2013-08-16 20:30:00,
2013-08-16 15:44:00,80.7,52.0,30.04,West,265,8.0,11.0,37,0.00,,---,0.00,VWS V14.01,2013-08-16 20:44:00,
2013-08-16 15:54:00,82.0,52.4,30.04,North,359,1.0,11.0,36,0.00,,---,0.00,VWS V14.01,2013-08-16 20:54:00,
2013-08-16 16:00:00,82.0,51.7,30.03,NNW,347,10.0,11.0,35,0.00,,---,0.00,VWS V14.01,2013-08-16 21:00:00,
2013-08-16 16:14:00,81.4,51.2,30.03,NNW,343,5.0,11.0,35,0.00,,---,0.00,VWS V14.01,2013-08-16 21:14:00,
2013-08-16 16:24:00,80.5,48.8,30.03,ESE,106,5.0,11.0,33,0.00,,---,0.00,VWS V14.01,2013-08-16 21:24:00,
2013-08-16 16:30:00,81.4,50.4,30.03,North,359,5.0,11.0,34,0.00,,---,0.00,VWS V14.01,2013-08-16 21:30:00,
2013-08-16 16:44:00,82.0,49.3,30.04,NW,326,5.0,10.0,32,0.00,,---,0.00,VWS V14.01,2013-08-16 21:44:00,
2013-08-16 16:54:00,81.1,50.1,30.04,North,357,5.0,10.0,34,0.00,,---,0.00,VWS V14.01,2013-08-16 21:54:00,
2013-08-16 17:00:00,81.2,50.2,30.03,North,359,3.0,10.0,34,0.00,,---,0.00,VWS V14.01,2013-08-16 22:00:00,
2013-08-16 17:14:00,79.9,51.3,30.03,North,359,2.0,8.0,37,0.00,,---,0.00,VWS V14.01,2013-08-16 22:14:00,
2013-08-16 17:24:00,79.6,51.1,30.03,North,359,5.0,8.0,37,0.00,,---,0.00,VWS V14.01,2013-08-16 22:24:00,
2013-08-16 17:30:00,78.6,52.3,30.03,North,359,3.0,8.0,40,0.00,,---,0.00,VWS V14.01,2013-08-16 22:30:00,
2013-08-16 17:44:00,77.6,53.4,30.03,North,356,2.0,7.0,43,0.00,,---,0.00,VWS V14.01,2013-08-16 22:44:00,
2013-08-16 17:54:00,78.1,51.8,30.03,North,354,6.0,7.0,40,0.00,,---,0.00,VWS V14.01,2013-08-16 22:54:00,
2013-08-16 18:00:00,78.5,52.9,30.03,North,359,2.0,7.0,41,0.00,,---,0.00,VWS V14.01,2013-08-16 23:00:00,
2013-08-16 18:14:00,76.8,53.9,30.04,North,359,1.0,8.0,45,0.00,,---,0.00,VWS V14.01,2013-08-16 23:14:00,
2013-08-16 18:24:00,76.5,54.2,30.04,North,359,0.0,8.0,46,0.00,,---,0.00,VWS V14.01,2013-08-16 23:24:00,
2013-08-16 18:30:00,76.7,54.4,30.04,South,184,0.0,8.0,46,0.00,,---,0.00,VWS V14.01,2013-08-16 23:30:00,
2013-08-16 18:44:00,76.0,55.5,30.04,NNW,340,0.0,2.0,49,0.00,,---,0.00,VWS V14.01,2013-08-16 23:44:00,
2013-08-16 18:54:00,75.4,55.5,30.04,WSW,240,0.0,2.0,50,0.00,,---,0.00,VWS V14.01,2013-08-16 23:54:00,
2013-08-16 19:00:00,75.1,56.3,30.04,WSW,247,0.0,2.0,52,0.00,,---,0.00,VWS V14.01,2013-08-17 00:00:00,
2013-08-16 19:14:00,74.7,56.5,30.04,North,354,0.0,0.0,53,0.00,,---,0.00,VWS V14.01,2013-08-17 00:14:00,
2013-08-16 19:24:00,74.2,57.0,30.04,North,357,0.0,0.0,55,0.00,,---,0.00,VWS V14.01,2013-08-17 00:24:00,
2013-08-16 19:30:00,73.9,57.7,30.04,North,357,0.0,0.0,57,0.00,,---,0.00,VWS V14.01,2013-08-17 00:30:00,
2013-08-16 19:44:00,72.3,57.2,30.04,North,357,0.0,0.0,59,0.00,,---,0.00,VWS V14.01,2013-08-17 00:44:00,
2013-08-16 19:55:00,70.9,56.8,30.04,North,357,0.0,0.0,61,0.00,,---,0.00,VWS V14.01,2013-08-17 00:55:00,
2013-08-16 20:00:00,70.3,56.2,30.05,North,357,0.0,0.0,61,0.00,,---,0.00,VWS V14.01,2013-08-17 01:00:00,
2013-08-16 20:15:00,69.1,56.4,30.05,North,354,0.0,0.0,64,0.00,,---,0.00,VWS V14.01,2013-08-17 01:15:00,
2013-08-16 20:25:00,68.1,56.7,30.05,North,357,0.0,0.0,67,0.00,,---,0.00,VWS V14.01,2013-08-17 01:25:00,
2013-08-16 20:30:00,67.6,56.7,30.06,North,357,0.0,0.0,68,0.00,,---,0.00,VWS V14.01,2013-08-17 01:30:00,
2013-08-16 20:45:00,66.3,56.2,30.06,North,357,0.0,0.0,70,0.00,,---,0.00,VWS V14.01,2013-08-17 01:45:00,
2013-08-16 20:55:00,65.5,55.9,30.06,North,359,0.0,0.0,71,0.00,,---,0.00,VWS V14.01,2013-08-17 01:55:00,
2013-08-16 21:00:00,65.2,55.2,30.06,North,359,0.0,0.0,70,0.00,,---,0.00,VWS V14.01,2013-08-17 02:00:00,
2013-08-16 21:15:00,64.8,55.2,30.06,North,357,0.0,0.0,71,0.00,,---,0.00,VWS V14.01,2013-08-17 02:15:00,
2013-08-16 21:25:00,64.5,55.7,30.06,North,359,0.0,0.0,73,0.00,,---,0.00,VWS V14.01,2013-08-17 02:25:00,
2013-08-16 21:30:00,64.3,55.8,30.07,North,357,0.0,0.0,74,0.00,,---,0.00,VWS V14.01,2013-08-17 02:30:00,
2013-08-16 21:45:00,63.7,55.6,30.07,North,357,0.0,0.0,75,0.00,,---,0.00,VWS V14.01,2013-08-17 02:45:00,
2013-08-16 21:55:00,63.2,55.9,30.07,North,357,0.0,0.0,77,0.00,,---,0.00,VWS V14.01,2013-08-17 02:55:00,
2013-08-16 22:00:00,63.1,55.8,30.07,North,357,0.0,0.0,77,0.00,,---,0.00,VWS V14.01,2013-08-17 03:00:00,
2013-08-16 22:15:00,62.4,55.1,30.07,North,357,0.0,0.0,77,0.00,,---,0.00,VWS V14.01,2013-08-17 03:15:00,
2013-08-16 22:25:00,62.3,55.0,30.07,North,356,0.0,0.0,77,0.00,,---,0.00,VWS V14.01,2013-08-17 03:25:00,
2013-08-16 22:30:00,62.1,54.8,30.07,North,356,0.0,0.0,77,0.00,,---,0.00,VWS V14.01,2013-08-17 03:30:00,
2013-08-16 22:45:00,61.8,54.5,30.08,North,356,0.0,0.0,77,0.00,,---,0.00,VWS V14.01,2013-08-17 03:45:00,
2013-08-16 22:55:00,61.8,54.5,30.08,North,356,0.0,0.0,77,0.00,,---,0.00,VWS V14.01,2013-08-17 03:55:00,
2013-08-16 23:00:00,61.8,54.5,30.08,North,356,0.0,0.0,77,0.00,,---,0.00,VWS V14.01,2013-08-17 04:00:00,
2013-08-16 23:05:00,61.6,54.3,30.08,North,356,0.0,0.0,77,0.00,,---,0.00,VWS V14.01,2013-08-17 04:05:00,
2013-08-16 23:15:00,61.5,54.6,30.08,North,352,0.0,0.0,78,0.00,,---,0.00,VWS V14.01,2013-08-17 04:15:00,
2013-08-16 23:25:00,61.3,54.4,30.08,North,356,0.0,0.0,78,0.00,,---,0.00,VWS V14.01,2013-08-17 04:25:00,
2013-08-16 23:30:00,61.2,54.3,30.08,North,356,0.0,0.0,78,0.00,,---,0.00,VWS V14.01,2013-08-17 04:30:00,
2013-08-16 23:35:00,61.2,54.3,30.08,North,354,0.0,0.0,78,0.00,,---,0.00,VWS V14.01,2013-08-17 04:35:00,
2013-08-16 23:45:00,61.0,54.1,30.08,North,354,0.0,0.0,78,0.00,,---,0.00,VWS V14.01,2013-08-17 04:45:00,
2013-08-16 23:55:00,60.7,54.5,30.08,North,354,0.0,0.0,80,0.00,,---,0.00,VWS V14.01,2013-08-17 04:55:00,